Погода Красная Поляна

Поиск расширенной информации на нашем сайте:

Полезная информация:

Новости сайта



02.01.2020
Опубликован Долгосрочный прогноз погоды по городам России и ближнего зарубежья на январь 2020 года.
Карты: Прогноз на январь и февраль 2020 года, Сравнение прогнозируемой аномалии приземной температуры воздуха на январь 2020 года по разным моделям.




Погода Красная Поляна - сегодня

Время (UTC), дата Ветер
(°,м/с) 
Видим.   Явления Облачность Т
(°С)
Тd
(°С)
f(%) Тe
(°С)
Pmin
(гПа)
dP
(гПа)
Po
(мм)
O2
(г/м3)
Тmin Tmax R s Состояние
почвы
15 18.10.20 тихо ()   18000 м    6/0 средняя, верхняя 
[Ac cast|Ci sp]
+17.6 +9.8 60 +20  1015.2  0.5  713  268    +25.3       
18 18.10.20 360 (С) 20000 м    ясно 
+15.8 +8.8 63 +18  1016.5  0.8  713  270           
21 18.10.20 010 (С) 20000 м    6/0 средняя 
[Ac As]
+15 +8.5 65 +16  1016.9  0.2  713  271           
00 19.10.20 040 (СВ) 20000 м    9/0 средняя 
[Ac As]
+15.2 +7.7 61 +17  1017.4  0.5  714  271           
03 19.10.20 тихо ()   20000 м    8/0 средняя 
[Ac As]
+14.3 +9.7 74 +16  1018  0.4  714  272  +13.8        сухая 
06 19.10.20 тихо ()   12000 м    10/9 1500 м средняя 
[Sc|Ac As]
+14.3 +8.9 70 +15  1018.2  0.2  714  272  +13.1         
09 19.10.20 040 (СВ) 18000 м    10/9 1500 м средняя 
[Sc|Ac As]
+17.2 +11.2 68 +23  1016.3  -1.1  713  268           
12 19.10.20 020 (С) 20000 м  слаб. ливневой дождь, в посл. час гроза  10/10 1500 м кучево-дожд. 
[Cb cap]
+13.7 +13.5 99 +22  1017.4  0.3  714  271           
15 19.10.20 030 (СВ) 4700 м  слаб. ливневой дождь{гроза}  10/10 450 м кучево-дожд. 
[Cb cap]
+12.5 +12.5 100 +20  1019.8  715  273    +17.9  28     
18 19.10.20 тихо ()   15000 м  {гроза, ливн. осадки}  10/10 630 м кучево-дожд. 
[Cb calv]
+12.2 +12.2 100 +17  1022.2  2.1  717  274           
21 19.10.20 тихо ()   13000 м    10/10 100 м 
[St]
+11.6 +11.6 100 +16  1023.7  1.3  718  275           
00 20.10.20 020 (С) 20000 м    1/1 600 м 
[Sc]
+9 +9 100 +10  1024.8  0.4  718  278           
03 20.10.20 030 (СВ) 20000 м    1/0 средняя 
[Ac cast]
+7.7 +7.7 100 +9  1025.4  0.2  718  280  +7.6      мокрая 
06 20.10.20 050 (СВ) 20000 м    6/0 средняя, верхняя 
[Ac trans|Ci sp]
+9.5 +7.6 88 +11  1025.7  0.7  719  278  +7.1         
09 20.10.20 150 (ЮВ) 19000 м    3/0 средняя, верхняя 
[Ac cast|Ci fib]
+15.6 +8.6 63 +17  1023.3  -0.9  718  272           
12 20.10.20 150 (ЮВ) 20000 м    8/3 1000 м средняя, верхняя 
[Cu med, cong|Ac lent|Cc]
+17.5 +7.8 53 +18  1022.1  -0.7  718  270           
15 20.10.20 100 (В) 20000 м    8/1 1000 м средняя, верхняя 
[Sc|Ac cast|Ci]
+11.7 +8 78 +12  1024.2  0.7  718  276    +17.8       
18 20.10.20 080 (В) 20000 м    4/0 средняя, верхняя 
[Ac cast|Ci fib]
+9.1 +6.9 86 +9  1025.5  0.6  719  279           
21 20.10.20 080 (В) 19000 м    ясно 
+7.3 +7.3 100 +8  1026.7  0.7  719  281           
00 21.10.20 тихо ()   20000 м    ясно 
+5.7 +5.2 97 +6  1027  719  283           
03 21.10.20 тихо ()   20000 м    ясно 
+4.3 +3.6 95 +4  1029.2  1.6  720  285  +4.3        влажная 
06 21.10.20 120 (ЮВ) 20000 м    ясно 
+8 +2.7 69 +9  1029.4  721  282           
09 21.10.20 130 (ЮВ) 20000 м    ясно 
+15.8 +6.8 55 +17  1026.8  -0.6  721  273           
12 21.10.20 130 (ЮВ) 20000 м    ясно 
+17.6 +8.2 54 +18  1025.4  -0.9  720  271           
15 21.10.20 тихо ()   20000 м    ясно 
+11.8 +7.5 75 +12  1027  0.2  720  277    +18.1       
Время (UTC), дата Ветер
(°,м/с) 
Видим.   Явления Облачность Т
(°С)
Тd
(°С)
f(%) Тe
(°С)
Pmin
(гПа)
dP
(гПа)
Po
(мм)
O2
(г/м3)
Тmin Tmax R s Состояние
почвы

Для получения пояснительной информации подведите курсор к названию столбца.

ПОГОДА Красная Поляна - архив

Всё, что Вы хотите узнать о погоде Красная Поляна - удобно и подробно!

Выберите нужную дату (начиная с 1 января 2019* года) и нажмите кнопку "Найти".
Будут отображены архивные сводки погоды по пункту Красная Поляна, начиная с указанной даты.


Отображать данные в формате CSV (для использования в таблицах Excel)


Внимание! Наш архив погоды предназначен исключительно для личного некоммерческого использования в познавательных целях. Если Вам необходимы официальные справки о состоянии погоды (для производственных, юридических, коммерческих и т.п. целей), обращайтесь в органы Росгидромета.

*Примечание: данная дата относится к архиву по метеостанциям СССР (Россия, СНГ, Балтия).
Архив по метеостанциям Зарубежной Европы и Азии (кроме Китая) хранится 10 дней, по другим регионам земного шара (Китай, Африка, Америка, Австралия, Океания) - 1 день.

Красная Поляна - район местоположения метеостанции


Название, широта, долгота, высота метеостанции:
Красная Поляна 43.7°ш. 40.2°д. 568 м над ур. моря [Российская Федерация]

Дополнительная информация

В oтличие oт бoльшинства пoгoдных сайтoв мы публикуем пoдрoбную метеoинфoрмацию в детальнoм прoфессиoнальнoм фoрмате.

Характеристики температуры и влажнoсти вoздуха измеряются на высoте 2 м в тени вдали oт зданий и деревьев.
Скoрoсть ветра измеряется на высoте 10 м (на урoвне рoста челoвека скoрoсть ветра ниже в 1.5-2 раза). Если метеoстанция нахoдится в гoрoде или в лесу, тo скoрoсть ветра занижена на 2-4 м/с пo сравнению с oткрытым местoм. Скoрoсть ветра над акватoриями крупных рек и oзёр, а также на вершинах хoлмoв на 2-5 м/с выше, чем в oбычных услoвиях.
Атмoсфернoе давление в разных тoчках местнoсти мoжет значительнo oтличаться oт давления на метеoстанции, в зависимoсти oт услoвий рельефа (при пoдъёме на 10 м давление пoнижается примернo на 1 мм рт.ст.).